Simultaneous Nadir Overpasses (SNOs) Predictions

Prediction of SNOs between GOES-15 and NOAA-20 Satellite Orbit:

Table of predicted SNOs for the next 14.0 days since TLE Epoch: 8/28/2021
Index Date Time (GOES-15) GOES-15 Lat,Lon NOAA-20 Lat,Lon Distance(km) Time Diff (sec)
1 08/28/2021 22:11:26 -0.45,-128.23 -1.10,-131.24 341.99 80
2 08/29/2021 21:50:01 -0.44,-128.23 -0.13,-126.70 174.18 80
3 08/31/2021 10:11:49 0.44,-128.29 1.25,-131.98 420.01 80
4 09/01/2021 09:55:44 0.44,-128.28 0.28,-127.44 95.84 80
5 09/03/2021 21:58:55 -0.43,-128.20 -0.42,-128.22 2.11 80
6 09/06/2021 09:59:18 0.42,-128.24 0.56,-128.96 81.42 80
7 09/07/2021 09:43:13 0.42,-128.23 -0.42,-124.42 433.97 80
8 09/08/2021 22:02:29 -0.42,-128.15 -0.75,-129.73 179.33 80
9 09/09/2021 21:46:24 -0.42,-128.14 0.23,-125.19 335.71 80
